Regional Weather Roundup
Issued by NWS

Home | Current Version | Previous Version | Graphics & Text | Print | Product List | Glossary On
Versions: 1 2 3 4 5 6 7 8 9 10 11 12 13 14 15 16 17 18 19 20 21 22 23 24 25 26 27 28 29 30 31 32 33 34 35 36 37 38 39 40 41 42 43 44 45 46 47 48 49 50
000
ASUS43 KLOT 212300
RWRIL

ILLINOIS REGIONAL WEATHER ROUNDUP
NATIONAL WEATHER SERVICE CHICAGO/ROMEOVILLE IL
600 PM CDT SUN SEP 21 2014

NOTE: "FAIR" INDICATES FEW OR NO CLOUDS BELOW 12,000 FEET WITH NO
SIGNIFICANT WEATHER AND/OR OBSTRUCTIONS TO VISIBILITY.

* THESE STATIONS ARE NOT UNDER NWS QUALITY CONTROL. THEY ALSO MAY NOT
  REPORT WEATHER SUCH AS PRECIPITATION OR FOG.

ILZ001-002-007-009-015-016-024-220000-
NORTHWEST ILLINOIS

CITY           SKY/WX    TMP DP  RH WIND       PRES   REMARKS
MOLINE         MOSUNNY   66  51  58 W10       30.09R
STERLING*      MOCLDY    64  50  59 N17       30.06R
$$

ILZ003-004-008-010-011-017-018-220000-
NORTH CENTRAL ILLINOIS

CITY           SKY/WX    TMP DP  RH WIND       PRES   REMARKS
ROCKFORD       PTCLDY    64  44  48 N13G23    30.06R
$$

ILZ005-006-012>014-019>023-220000-
NORTHEAST ILLINOIS

CITY           SKY/WX    TMP DP  RH WIND       PRES   REMARKS
CHICAGO-OHARE  MOCLDY    63  51  65 NE14      30.02R
CHICAGO-MIDWAY MOCLDY    62  52  69 NE13      30.02R
AURORA         PTCLDY    65  49  56 NW15      30.03R
WAUKEGAN       PTCLDY    59  47  64 NW8       30.02R
DUPAGE AIRPORT PTCLDY    66  50  56 NW15      30.02R
WHEELING       PTCLDY    59  50  72 N9        30.05R
NORTHERLY ISL    N/A     59  51  75 MISG        N/A
$$

LMZ740>746-220000-
SOUTHERN LAKE MICHIGAN

STATION/POSITION SKY/WX   TEMP    WIND        PRES    VSBY  WAVE
                          AIR SEA DIR/SP/G                  HT/PER
                          (F)     (DEG/KT/KT) (MB)    (MI)  (FT/S)
SOUTHERN BUOY              57 62  350/ 23/ 27 1014.8R         9/ 8
WAUKEGAN HARBOR            56      20/ 12/ 15   N/A
HARRISON CRIB              59     360/ 19/ 22   N/A
BURNHAM HARBOR             59     360/ 14/ 17   N/A
CALUMET HARBOR             60     350/ 11/ 17 1015.2R
MICHIGAN CITY              59     350/ 24/ 29   N/A
MICHIGAN CITY 6N           60 64   10/ 17/ 23   N/A           8/ 7
ST. JOSEPH                 59 65  360/ 21/ 29   N/A          10/ 8
$$

ILZ025>027-034>036-040-047-049-050-058-095>099-220000-
WEST-CENTRAL ILLINOIS

CITY           SKY/WX    TMP DP  RH WIND       PRES   REMARKS
QUINCY         MOSUNNY   68  50  52 N10       30.10R
$$

ILZ028>032-037-038-041>044-048-051>054-059>061-220000-
CENTRAL ILLINOIS

CITY           SKY/WX    TMP DP  RH WIND       PRES   REMARKS
DECATUR        MOCLDY    67  49  52 NW14G25   30.06R
PEORIA         PTSUNNY   65  50  58 NW9       30.08R
SPRINGFIELD    CLOUDY    68  51  54 N14       30.07R
TAYLORVILLE    NOT AVBL
$$

ILZ033-039-045-046-055>057-062-063-220000-
EAST-CENTRAL ILLINOIS

CITY           SKY/WX    TMP DP  RH WIND       PRES   REMARKS
CHAMPAIGN      PTCLDY    64  51  62 NW14      30.04R
MATTOON        MOCLDY    66  49  54 NW15      30.03R
$$

ILZ079-100>102-220000-
SOUTHWEST ILLINOIS

CITY           SKY/WX    TMP DP  RH WIND       PRES   REMARKS
BELLEVILLE     PTSUNNY   72  50  45 W10       30.04R
CAHOKIA*       MOSUNNY   73  48  41 NW16G25   30.06R
$$

ILZ064>066-069>071-074>076-080>082-084>086-088>090-092>094-220000-
SOUTH-CENTRAL ILLINOIS

CITY           SKY/WX    TMP DP  RH WIND       PRES   REMARKS
CARBONDALE     SUNNY     76  48  37 N9        30.01R
MARION         CLEAR     77  48  36 N17       30.02R
MT. VERNON     CLEAR     73  48  40 N5        30.03R
$$

ILZ067-068-072-073-078-083-087-091-220000-
SOUTHEAST ILLINOIS

CITY           SKY/WX    TMP DP  RH WIND       PRES   REMARKS
LAWRENCEVILLE  MOCLDY    71  49  45 N22G28    30.00R
$$

ABBREVIATIONS USED IN REMARKS
   TC - TEMPERATURE IN CELSIUS
  WCI - WIND CHILL INDEX
   HX - HEAT INDEX
  VSB - VISIBILITY
$$



USA.gov is the U.S. government's official web portal to all federal, state and local government web resources and services.